BAW915 EGLL-EHAM

Flight info

Callsign BAW915
Flight time 0h 37m
Altitude 27000
Route BPK Q295 BRAIN M197 REDFA
Aircraft A320/M-SDE3FGHIRWY/LB1

Departure

Time 2026-05-07 12:14
Airport London Heathrow Airport (EGLL)

Arrival

Time 2026-05-07 12:51
Airport Amsterdam Airport Schiphol (EHAM)
Time Latitude Longitude Altitude Speed Heading
2026-05-07 11:43 51.46926 -0.48718 89 ft 0 kts 360°
2026-05-07 12:07 51.46916 -0.48717 90 ft 4 kts
2026-05-07 12:08 51.46892 -0.48725 90 ft 4 kts 31°
2026-05-07 12:08 51.46876 -0.48751 87 ft 4 kts 78°
2026-05-07 12:08 51.46875 -0.48765 87 ft 1 kts 90°
2026-05-07 12:09 51.46875 -0.48763 91 ft 1 kts 90°
2026-05-07 12:09 51.46862 -0.48749 88 ft 4 kts 166°
2026-05-07 12:09 51.46851 -0.48749 87 ft 0 kts 179°
2026-05-07 12:11 51.46844 -0.48749 87 ft 3 kts 179°
2026-05-07 12:11 51.46787 -0.48752 87 ft 13 kts 180°
2026-05-07 12:12 51.46679 -0.48751 88 ft 14 kts 179°
2026-05-07 12:12 51.46591 -0.48775 88 ft 8 kts 198°
2026-05-07 12:12 51.46522 -0.48773 90 ft 13 kts 153°
2026-05-07 12:12 51.46479 -0.48630 88 ft 17 kts 93°
2026-05-07 12:13 51.46480 -0.48404 89 ft 23 kts 91°
2026-05-07 12:13 51.46478 -0.47974 87 ft 74 kts 90°
2026-05-07 12:13 51.46484 -0.46697 89 ft 150 kts 90°
2026-05-07 12:13 51.46504 -0.44777 493 ft 178 kts 89°
2026-05-07 12:14 51.46517 -0.42742 1349 ft 193 kts 89°
2026-05-07 12:14 51.46529 -0.40469 2043 ft 214 kts 87°
2026-05-07 12:14 51.46998 -0.38100 2784 ft 236 kts 55°
2026-05-07 12:14 51.48120 -0.36109 3852 ft 249 kts 44°
2026-05-07 12:15 51.49454 -0.34167 4916 ft 265 kts 41°
2026-05-07 12:15 51.50829 -0.32139 6196 ft 272 kts 43°
2026-05-07 12:15 51.52104 -0.29863 7420 ft 278 kts 58°
2026-05-07 12:15 51.52935 -0.27044 8663 ft 282 kts 69°
2026-05-07 12:16 51.53699 -0.24107 9925 ft 287 kts 63°
2026-05-07 12:16 51.54898 -0.21440 10690 ft 309 kts 44°
2026-05-07 12:16 51.56783 -0.19511 11176 ft 336 kts 23°
2026-05-07 12:16 51.59006 -0.18073 11845 ft 351 kts 19°
2026-05-07 12:17 51.61375 -0.16957 12774 ft 359 kts 16°
2026-05-07 12:17 51.63794 -0.15850 13760 ft 364 kts 16°
2026-05-07 12:17 51.66250 -0.14716 14663 ft 369 kts 16°
2026-05-07 12:17 51.68726 -0.13523 15511 ft 375 kts 20°
2026-05-07 12:18 51.71069 -0.11620 16338 ft 380 kts 34°
2026-05-07 12:18 51.73099 -0.08856 16897 ft 384 kts 47°
2026-05-07 12:18 51.74655 -0.05328 17573 ft 388 kts 62°
2026-05-07 12:18 51.75661 -0.01272 18459 ft 392 kts 76°
2026-05-07 12:19 51.76132 0.03081 19258 ft 396 kts 83°
2026-05-07 12:19 51.76503 0.07510 20112 ft 401 kts 83°
2026-05-07 12:19 51.76871 0.11998 20946 ft 405 kts 83°
2026-05-07 12:19 51.77238 0.16522 21726 ft 409 kts 83°
2026-05-07 12:20 51.77608 0.21110 22466 ft 414 kts 83°
2026-05-07 12:20 51.77982 0.25739 23186 ft 418 kts 83°
2026-05-07 12:20 51.78358 0.30421 23848 ft 423 kts 83°
2026-05-07 12:20 51.78735 0.35144 24446 ft 426 kts 83°
2026-05-07 12:21 51.79115 0.39906 25031 ft 428 kts 83°
2026-05-07 12:21 51.79497 0.44694 25610 ft 431 kts 83°
2026-05-07 12:21 51.79882 0.49515 26181 ft 434 kts 83°
2026-05-07 12:21 51.80267 0.54360 26740 ft 436 kts 84°
2026-05-07 12:22 51.80651 0.59230 27020 ft 437 kts 84°
2026-05-07 12:22 51.81041 0.64113 27086 ft 439 kts 82°
2026-05-07 12:22 51.81691 0.68939 27088 ft 440 kts 77°
2026-05-07 12:22 51.82434 0.73734 27086 ft 440 kts 77°
2026-05-07 12:23 51.83176 0.78539 27085 ft 440 kts 77°
2026-05-07 12:23 51.83924 0.83338 27088 ft 440 kts 76°
2026-05-07 12:23 51.84738 0.88117 27087 ft 441 kts 75°
2026-05-07 12:23 51.85605 0.92872 27089 ft 441 kts 74°
2026-05-07 12:24 51.86498 0.97613 27088 ft 441 kts 74°
2026-05-07 12:24 51.87397 1.02350 27088 ft 441 kts 74°
2026-05-07 12:24 51.88289 1.07100 27087 ft 441 kts 74°
2026-05-07 12:24 51.89165 1.11851 27085 ft 441 kts 74°
2026-05-07 12:25 51.90027 1.16605 27090 ft 440 kts 74°
2026-05-07 12:25 51.90883 1.21373 27091 ft 440 kts 75°
2026-05-07 12:25 51.91732 1.26137 27091 ft 440 kts 75°
2026-05-07 12:25 51.92574 1.30894 27091 ft 440 kts 75°
2026-05-07 12:26 51.93417 1.35669 27095 ft 440 kts 75°
2026-05-07 12:26 51.94259 1.40434 27095 ft 440 kts 75°
2026-05-07 12:26 51.95106 1.45203 27099 ft 440 kts 75°
2026-05-07 12:26 51.95951 1.49966 27102 ft 440 kts 75°
2026-05-07 12:27 51.96794 1.54733 27100 ft 440 kts 75°
2026-05-07 12:27 51.97631 1.59495 27102 ft 439 kts 75°
2026-05-07 12:27 51.98464 1.64269 27102 ft 439 kts 75°
2026-05-07 12:27 51.99291 1.69034 27104 ft 439 kts 75°
2026-05-07 12:28 52.00087 1.73819 27103 ft 439 kts 76°
2026-05-07 12:28 52.00844 1.78619 27105 ft 439 kts 76°
2026-05-07 12:28 52.01575 1.83428 27100 ft 439 kts 77°
2026-05-07 12:28 52.02295 1.88240 27101 ft 439 kts 77°
2026-05-07 12:29 52.03023 1.93096 27106 ft 450 kts 77°
2026-05-07 12:29 52.03781 1.98105 27105 ft 463 kts 76°
2026-05-07 12:29 52.04565 2.03219 27107 ft 470 kts 76°
2026-05-07 12:29 52.05360 2.08376 27107 ft 471 kts 76°
2026-05-07 12:30 52.06150 2.13506 26528 ft 464 kts 76°
2026-05-07 12:30 52.06933 2.18613 24940 ft 468 kts 76°
2026-05-07 12:30 52.07707 2.23709 24037 ft 458 kts 77°
2026-05-07 12:30 52.08452 2.28635 23585 ft 440 kts 77°
2026-05-07 12:31 52.09168 2.33381 23330 ft 427 kts 77°
2026-05-07 12:31 52.09865 2.38048 23118 ft 424 kts 77°
2026-05-07 12:31 52.10557 2.42702 23101 ft 422 kts 77°
2026-05-07 12:31 52.11316 2.47248 23112 ft 423 kts 71°
2026-05-07 12:32 52.12496 2.51618 23106 ft 423 kts 62°
2026-05-07 12:32 52.13986 2.55739 23110 ft 422 kts 59°
2026-05-07 12:32 52.15486 2.59853 23111 ft 422 kts 59°
2026-05-07 12:32 52.16979 2.63969 23107 ft 422 kts 59°
2026-05-07 12:33 52.19476 2.70875 23112 ft 422 kts 60°
2026-05-07 12:33 52.21444 2.76342 23109 ft 422 kts 60°
2026-05-07 12:33 52.22924 2.80469 23110 ft 422 kts 60°
2026-05-07 12:34 52.24406 2.84614 23111 ft 426 kts 60°
2026-05-07 12:34 52.25422 2.87455 23110 ft 431 kts 60°
2026-05-07 12:34 52.26940 2.91696 23108 ft 433 kts 60°
2026-05-07 12:34 52.28461 2.95953 23112 ft 434 kts 60°
2026-05-07 12:35 52.29981 3.00216 23115 ft 434 kts 60°
2026-05-07 12:35 52.31499 3.04472 23109 ft 434 kts 60°
2026-05-07 12:35 52.33022 3.08740 23109 ft 434 kts 60°
2026-05-07 12:35 52.34536 3.12998 22951 ft 430 kts 60°
2026-05-07 12:36 52.36024 3.17196 21994 ft 424 kts 60°
2026-05-07 12:36 52.37494 3.21352 21232 ft 417 kts 60°
2026-05-07 12:36 52.38929 3.25415 20556 ft 410 kts 60°
2026-05-07 12:36 52.40350 3.29436 19821 ft 406 kts 60°
2026-05-07 12:37 52.41754 3.33427 19147 ft 403 kts 60°
2026-05-07 12:37 52.43143 3.37383 18504 ft 398 kts 60°
2026-05-07 12:37 52.44440 3.41366 17771 ft 394 kts 66°
2026-05-07 12:37 52.45310 3.45596 17051 ft 389 kts 76°
2026-05-07 12:38 52.45924 3.49888 16303 ft 385 kts 77°
2026-05-07 12:38 52.46531 3.54142 15564 ft 380 kts 77°
2026-05-07 12:38 52.47130 3.58343 14813 ft 376 kts 77°
2026-05-07 12:38 52.47722 3.62491 14084 ft 372 kts 77°
2026-05-07 12:39 52.48308 3.66594 13298 ft 367 kts 77°
2026-05-07 12:39 52.48888 3.70649 12507 ft 363 kts 77°
2026-05-07 12:39 52.49460 3.74654 11742 ft 358 kts 77°
2026-05-07 12:39 52.49756 3.78661 11008 ft 353 kts 94°
2026-05-07 12:40 52.49183 3.82519 10307 ft 347 kts 115°
2026-05-07 12:40 52.47829 3.85755 9549 ft 343 kts 131°
2026-05-07 12:40 52.46272 3.88635 9217 ft 328 kts 132°
2026-05-07 12:40 52.44788 3.91352 8879 ft 315 kts 132°
2026-05-07 12:41 52.43338 3.94005 8368 ft 310 kts 133°
2026-05-07 12:41 52.41905 3.96624 7829 ft 307 kts 133°
2026-05-07 12:41 52.40488 3.99217 7301 ft 304 kts 133°
2026-05-07 12:41 52.39088 4.01778 7105 ft 302 kts 132°
2026-05-07 12:42 52.37696 4.04322 6829 ft 296 kts 132°
2026-05-07 12:42 52.36439 4.06830 6698 ft 281 kts 128°
2026-05-07 12:42 52.35287 4.09323 6517 ft 270 kts 127°
2026-05-07 12:42 52.34152 4.11793 6150 ft 266 kts 127°
2026-05-07 12:43 52.33053 4.14170 5761 ft 265 kts 127°
2026-05-07 12:43 52.31936 4.16565 5363 ft 265 kts 127°
2026-05-07 12:43 52.30815 4.18945 4955 ft 264 kts 127°
2026-05-07 12:43 52.29686 4.21317 4547 ft 264 kts 127°
2026-05-07 12:44 52.28543 4.23698 4158 ft 262 kts 127°
2026-05-07 12:44 52.27431 4.25993 3787 ft 260 kts 128°
2026-05-07 12:44 52.26324 4.28266 3418 ft 259 kts 127°
2026-05-07 12:44 52.25187 4.30587 3040 ft 257 kts 128°
2026-05-07 12:45 52.24074 4.32857 2659 ft 256 kts 127°
2026-05-07 12:45 52.22964 4.35117 2274 ft 254 kts 127°
2026-05-07 12:45 52.21863 4.37337 2035 ft 247 kts 127°
2026-05-07 12:45 52.20826 4.39426 2005 ft 237 kts 126°
2026-05-07 12:46 52.20132 4.41836 2020 ft 232 kts 99°
2026-05-07 12:46 52.19948 4.44373 2002 ft 219 kts 94°
2026-05-07 12:46 52.19838 4.46747 2006 ft 209 kts 93°
2026-05-07 12:46 52.19897 4.49099 2006 ft 203 kts 80°
2026-05-07 12:47 52.20256 4.51304 2007 ft 202 kts 61°
2026-05-07 12:47 52.20989 4.53245 2008 ft 201 kts 56°
2026-05-07 12:47 52.21730 4.55136 2008 ft 200 kts 57°
2026-05-07 12:47 52.22487 4.57085 2021 ft 201 kts 56°
2026-05-07 12:48 52.23229 4.59000 2008 ft 201 kts 57°
2026-05-07 12:48 52.23976 4.60930 1840 ft 201 kts 56°
2026-05-07 12:48 52.24725 4.62867 1595 ft 201 kts 56°
2026-05-07 12:48 52.25449 4.64745 1328 ft 189 kts 56°
2026-05-07 12:49 52.26110 4.66458 1076 ft 172 kts 56°
2026-05-07 12:49 52.26704 4.67998 849 ft 149 kts 57°
2026-05-07 12:49 52.27207 4.69305 672 ft 127 kts 56°
2026-05-07 12:49 52.27651 4.70459 518 ft 115 kts 56°
2026-05-07 12:50 52.28072 4.71534 367 ft 113 kts 57°
2026-05-07 12:50 52.28484 4.72609 207 ft 111 kts 59°
2026-05-07 12:50 52.28893 4.73675 46 ft 111 kts 59°
2026-05-07 12:50 52.29274 4.74661 1 ft 84 kts 58°
2026-05-07 12:51 52.29493 4.75235 -2 ft 35 kts 58°
2026-05-07 12:51 52.29588 4.75474 -2 ft 27 kts 56°
2026-05-07 12:51 52.29711 4.75743 -2 ft 31 kts 41°
2026-05-07 12:51 52.29830 4.75844 -1 ft 11 kts 27°
2026-05-07 12:52 52.29892 4.75897 -1 ft 9 kts 28°
2026-05-07 12:52 52.29962 4.75959 -1 ft 13 kts 28°
2026-05-07 12:52 52.30036 4.76092 -1 ft 17 kts 56°
2026-05-07 12:52 52.30107 4.76285 -1 ft 22 kts 59°
2026-05-07 12:53 52.30169 4.76445 -1 ft 17 kts 58°
2026-05-07 12:53 52.30239 4.76628 -1 ft 14 kts 57°
2026-05-07 12:53 52.30298 4.76779 -1 ft 18 kts 57°
2026-05-07 12:53 52.30363 4.76951 -1 ft 11 kts 59°
2026-05-07 12:54 52.30400 4.77034 -1 ft 11 kts 36°
2026-05-07 12:54 52.30477 4.77000 -1 ft 14 kts 325°
2026-05-07 12:54 52.30557 4.76915 -1 ft 8 kts 328°
2026-05-07 12:54 52.30617 4.76863 -1 ft 11 kts 348°
2026-05-07 12:55 52.30654 4.76962 -1 ft 14 kts 91°
2026-05-07 12:55 52.30661 4.77019 -1 ft 4 kts 41°
2026-05-07 12:55 52.30699 4.77025 -1 ft 7 kts
2026-05-07 12:55 52.30717 4.77026 -1 ft 2 kts
2026-05-07 12:56 52.30718 4.77026 -1 ft 0 kts